Year,Month,Day,Hour,Minute,Value (Times are PST for temperature in C)
2017,09,04,00,00,19.80
2017,09,04,00,01,19.80
2017,09,04,00,02,19.80
2017,09,04,00,03,19.70
2017,09,04,00,04,19.70
2017,09,04,00,05,19.70
2017,09,04,00,06,19.70
2017,09,04,00,07,19.70
2017,09,04,00,08,19.70
2017,09,04,00,09,19.70
2017,09,04,00,10,19.70
2017,09,04,00,11,19.70
2017,09,04,00,12,19.70
2017,09,04,00,13,19.60
2017,09,04,00,14,19.60
2017,09,04,00,15,19.60
2017,09,04,00,16,19.60
2017,09,04,00,17,19.60
2017,09,04,00,18,19.60
2017,09,04,00,19,19.60
2017,09,04,00,20,19.60
2017,09,04,00,21,19.50
2017,09,04,00,22,19.50
2017,09,04,00,23,19.40
2017,09,04,00,24,19.40
2017,09,04,00,25,19.40
2017,09,04,00,26,19.40
2017,09,04,00,27,19.40
2017,09,04,00,28,19.40
2017,09,04,00,29,19.40
2017,09,04,00,30,19.40
2017,09,04,00,31,19.40
2017,09,04,00,32,19.30
2017,09,04,00,33,19.30
2017,09,04,00,34,19.30
2017,09,04,00,35,19.30
2017,09,04,00,36,19.30
2017,09,04,00,37,19.20
2017,09,04,00,38,19.20
2017,09,04,00,39,19.20
2017,09,04,00,40,19.20
2017,09,04,00,41,19.20
2017,09,04,00,42,19.10
2017,09,04,00,43,19.10
2017,09,04,00,44,19.10
2017,09,04,00,45,19.10
2017,09,04,00,46,19.10
2017,09,04,00,47,19.00
2017,09,04,00,48,19.00
2017,09,04,00,49,19.00
2017,09,04,00,50,19.00
2017,09,04,00,51,18.90
2017,09,04,00,52,18.90
2017,09,04,00,53,18.90
2017,09,04,00,54,18.90
2017,09,04,00,55,18.90
2017,09,04,00,56,18.90
2017,09,04,00,57,18.90
2017,09,04,00,58,18.90
2017,09,04,00,59,18.90
2017,09,04,01,00,18.90
2017,09,04,01,01,18.90
2017,09,04,01,02,18.90
2017,09,04,01,03,18.90
2017,09,04,01,04,18.90
2017,09,04,01,05,18.90
2017,09,04,01,06,18.90
2017,09,04,01,07,18.90
2017,09,04,01,08,18.90
2017,09,04,01,09,18.90
2017,09,04,01,10,18.90
2017,09,04,01,11,18.90
2017,09,04,01,12,18.90
2017,09,04,01,13,18.90
2017,09,04,01,14,18.90
2017,09,04,01,15,18.90
2017,09,04,01,16,19.00
2017,09,04,01,17,18.90
2017,09,04,01,18,18.90
2017,09,04,01,19,18.90
2017,09,04,01,20,18.90
2017,09,04,01,21,18.90
2017,09,04,01,22,18.90
2017,09,04,01,23,18.90
2017,09,04,01,24,18.90
2017,09,04,01,25,18.90
2017,09,04,01,26,18.90
2017,09,04,01,27,18.90
2017,09,04,01,28,18.90
2017,09,04,01,29,18.90
2017,09,04,01,30,18.90
2017,09,04,01,31,18.90
2017,09,04,01,32,18.90
2017,09,04,01,33,18.90
2017,09,04,01,34,18.90
2017,09,04,01,35,18.90
2017,09,04,01,36,18.90
2017,09,04,01,37,18.80
2017,09,04,01,38,18.80
2017,09,04,01,39,18.80
2017,09,04,01,40,18.80
2017,09,04,01,41,18.80
2017,09,04,01,42,18.80
2017,09,04,01,43,18.70
2017,09,04,01,44,18.70
2017,09,04,01,45,18.70
2017,09,04,01,46,18.70
2017,09,04,01,47,18.70
2017,09,04,01,48,18.70
2017,09,04,01,49,18.70
2017,09,04,01,50,18.70
2017,09,04,01,51,18.70
2017,09,04,01,52,18.60
2017,09,04,01,53,18.60
2017,09,04,01,54,18.60
2017,09,04,01,55,18.60
2017,09,04,01,56,18.60
2017,09,04,01,57,18.60
2017,09,04,01,58,18.50
2017,09,04,01,59,18.50
2017,09,04,02,00,18.50
2017,09,04,02,01,18.50
2017,09,04,02,02,18.50
2017,09,04,02,03,18.40
2017,09,04,02,04,18.40
2017,09,04,02,05,18.40
2017,09,04,02,06,18.40
2017,09,04,02,07,18.40
2017,09,04,02,08,18.40
2017,09,04,02,09,18.40
2017,09,04,02,10,18.40
2017,09,04,02,11,18.40
2017,09,04,02,12,18.30
2017,09,04,02,13,18.30
2017,09,04,02,14,18.30
2017,09,04,02,15,18.30
2017,09,04,02,16,18.30
2017,09,04,02,17,18.30
2017,09,04,02,18,18.30
2017,09,04,02,19,18.30
2017,09,04,02,20,18.30
2017,09,04,02,21,18.30
2017,09,04,02,22,18.30
2017,09,04,02,23,18.30
2017,09,04,02,24,18.30
2017,09,04,02,25,18.30
2017,09,04,02,26,18.30
2017,09,04,02,27,18.30
2017,09,04,02,28,18.40
2017,09,04,02,29,18.40
2017,09,04,02,30,18.40
2017,09,04,02,31,18.40
2017,09,04,02,32,18.40
2017,09,04,02,33,18.40
2017,09,04,02,34,18.40
2017,09,04,02,35,18.40
2017,09,04,02,36,18.40
2017,09,04,02,37,18.40
2017,09,04,02,38,18.40
2017,09,04,02,39,18.40
2017,09,04,02,40,18.40
2017,09,04,02,41,18.40
2017,09,04,02,42,18.40
2017,09,04,02,43,18.40
2017,09,04,02,44,18.40
2017,09,04,02,45,18.30
2017,09,04,02,46,18.30
2017,09,04,02,47,18.30
2017,09,04,02,48,18.30
2017,09,04,02,49,18.30
2017,09,04,02,50,18.30
2017,09,04,02,51,18.40
2017,09,04,02,52,18.40
2017,09,04,02,53,18.40
2017,09,04,02,54,18.40
2017,09,04,02,55,18.40
2017,09,04,02,56,18.40
2017,09,04,02,57,18.40
2017,09,04,02,58,18.40
2017,09,04,02,59,18.40
2017,09,04,03,00,18.40
2017,09,04,03,01,18.40
2017,09,04,03,02,18.40
2017,09,04,03,03,18.40
2017,09,04,03,04,18.30
2017,09,04,03,05,18.30
2017,09,04,03,06,18.30
2017,09,04,03,07,18.30
2017,09,04,03,08,18.30
2017,09,04,03,09,18.30
2017,09,04,03,10,18.30
2017,09,04,03,11,18.30
2017,09,04,03,12,18.30
2017,09,04,03,13,18.30
2017,09,04,03,14,18.30
2017,09,04,03,15,18.30
2017,09,04,03,16,18.20
2017,09,04,03,17,18.20
2017,09,04,03,18,18.20
2017,09,04,03,19,18.20
2017,09,04,03,20,18.20
2017,09,04,03,21,18.20
2017,09,04,03,22,18.20
2017,09,04,03,23,18.20
2017,09,04,03,24,18.20
2017,09,04,03,25,18.20
2017,09,04,03,26,18.10
2017,09,04,03,27,18.10
2017,09,04,03,28,18.10
2017,09,04,03,29,18.10
2017,09,04,03,30,18.10
2017,09,04,03,31,18.10
2017,09,04,03,32,18.10
2017,09,04,03,33,18.10
2017,09,04,03,34,18.10
2017,09,04,03,35,18.10
2017,09,04,03,36,18.10
2017,09,04,03,37,18.10
2017,09,04,03,38,18.20
2017,09,04,03,39,18.20
2017,09,04,03,40,18.20
2017,09,04,03,41,18.20
2017,09,04,03,42,18.30
2017,09,04,03,43,18.30
2017,09,04,03,44,18.30
2017,09,04,03,45,18.40
2017,09,04,03,46,18.40
2017,09,04,03,47,18.50
2017,09,04,03,48,18.50
2017,09,04,03,49,18.60
2017,09,04,03,50,18.60
2017,09,04,03,51,18.70
2017,09,04,03,52,18.70
2017,09,04,03,53,18.70
2017,09,04,03,54,18.70
2017,09,04,03,55,18.80
2017,09,04,03,56,18.90
2017,09,04,03,57,19.10
2017,09,04,03,58,19.40
2017,09,04,03,59,19.70
2017,09,04,04,00,19.90
2017,09,04,04,01,20.10
2017,09,04,04,02,20.30
2017,09,04,04,03,20.40
2017,09,04,04,04,20.50
2017,09,04,04,08,20.60
2017,09,04,04,09,20.70
2017,09,04,04,10,20.70
2017,09,04,04,11,20.80
2017,09,04,04,12,20.80
2017,09,04,04,13,20.80
2017,09,04,04,14,20.90
2017,09,04,04,15,20.80
2017,09,04,04,16,20.80
2017,09,04,04,17,20.80
2017,09,04,04,18,20.80
2017,09,04,04,19,20.80
2017,09,04,04,20,20.70
2017,09,04,04,21,20.70
2017,09,04,04,22,20.60
2017,09,04,04,23,20.60
2017,09,04,04,24,20.50
2017,09,04,04,25,20.40
2017,09,04,04,26,20.30
2017,09,04,04,27,20.30
2017,09,04,04,28,20.20
2017,09,04,04,29,20.10
2017,09,04,04,30,20.10
2017,09,04,04,31,20.00
2017,09,04,04,32,19.90
2017,09,04,04,33,19.90
2017,09,04,04,34,19.90
2017,09,04,04,35,19.80
2017,09,04,04,36,19.80
2017,09,04,04,37,19.80
2017,09,04,04,38,19.80
2017,09,04,04,39,19.80
2017,09,04,04,40,19.80
2017,09,04,04,41,19.80
2017,09,04,04,42,19.80
2017,09,04,04,43,19.80
2017,09,04,04,44,19.70
2017,09,04,04,45,19.70
2017,09,04,04,46,19.70
2017,09,04,04,47,19.70
2017,09,04,04,48,19.70
2017,09,04,04,49,19.70
2017,09,04,04,50,19.80
2017,09,04,04,51,19.80
2017,09,04,04,52,19.90
2017,09,04,04,53,20.00
2017,09,04,04,54,20.10
2017,09,04,04,55,20.20
2017,09,04,04,56,20.30
2017,09,04,04,57,20.30
2017,09,04,04,58,20.40
2017,09,04,04,59,20.40
2017,09,04,05,00,20.50
2017,09,04,05,01,20.60
2017,09,04,05,02,20.70
2017,09,04,05,03,20.90
2017,09,04,05,04,21.10
2017,09,04,05,05,21.30
2017,09,04,05,06,21.50
2017,09,04,05,07,21.60
2017,09,04,05,08,21.80
2017,09,04,05,09,22.00
2017,09,04,05,10,22.10
2017,09,04,05,11,22.20
2017,09,04,05,12,22.30
2017,09,04,05,13,22.40
2017,09,04,05,14,22.50
2017,09,04,05,15,22.60
2017,09,04,05,16,22.60
2017,09,04,05,17,22.60
2017,09,04,05,18,22.60
2017,09,04,05,19,22.50
2017,09,04,05,20,22.50
2017,09,04,05,21,22.40
2017,09,04,05,22,22.40
2017,09,04,05,23,22.30
2017,09,04,05,24,22.30
2017,09,04,05,25,22.20
2017,09,04,05,26,22.20
2017,09,04,05,27,22.10
2017,09,04,05,28,22.00
2017,09,04,05,29,22.00
2017,09,04,05,30,21.90
2017,09,04,05,31,21.90
2017,09,04,05,32,21.80
2017,09,04,05,33,21.80
2017,09,04,05,34,21.70
2017,09,04,05,35,21.60
2017,09,04,05,36,21.50
2017,09,04,05,37,21.40
2017,09,04,05,38,21.30
2017,09,04,05,39,21.20
2017,09,04,05,40,21.10
2017,09,04,05,41,21.00
2017,09,04,05,42,20.90
2017,09,04,05,43,20.90
2017,09,04,05,44,20.90
2017,09,04,05,45,20.80
2017,09,04,05,46,20.80
2017,09,04,05,47,20.80
2017,09,04,05,48,20.80
2017,09,04,05,49,20.80
2017,09,04,05,50,20.80
2017,09,04,05,51,20.80
2017,09,04,05,52,20.80
2017,09,04,05,53,20.70
2017,09,04,05,54,20.70
2017,09,04,05,55,20.60
2017,09,04,05,56,20.60
2017,09,04,05,57,20.60
2017,09,04,05,58,20.60
2017,09,04,05,59,20.50
2017,09,04,06,00,20.50
2017,09,04,06,01,20.50
2017,09,04,06,02,20.50
2017,09,04,06,03,20.50
2017,09,04,06,04,20.50
2017,09,04,06,05,20.50
2017,09,04,06,06,20.50
2017,09,04,06,07,20.50
2017,09,04,06,08,20.60
2017,09,04,06,09,20.60
2017,09,04,06,10,20.60
2017,09,04,06,11,20.60
2017,09,04,06,12,20.60
2017,09,04,06,13,20.60
2017,09,04,06,14,20.60
2017,09,04,06,15,20.60
2017,09,04,06,16,20.60
2017,09,04,06,17,20.60
2017,09,04,06,18,20.60
2017,09,04,06,19,20.50
2017,09,04,06,20,20.50
2017,09,04,06,21,20.50
2017,09,04,06,22,20.50
2017,09,04,06,23,20.50
2017,09,04,06,24,20.40
2017,09,04,06,25,20.40
2017,09,04,06,26,20.40
2017,09,04,06,27,20.40
2017,09,04,06,28,20.40
2017,09,04,06,29,20.40
2017,09,04,06,30,20.40
2017,09,04,06,31,20.40
2017,09,04,06,32,20.40
2017,09,04,06,33,20.40
2017,09,04,06,34,20.40
2017,09,04,06,35,20.40
2017,09,04,06,36,20.40
2017,09,04,06,37,20.40
2017,09,04,06,38,20.40
2017,09,04,06,39,20.40
2017,09,04,06,40,20.40
2017,09,04,06,41,20.30
2017,09,04,06,42,20.30
2017,09,04,06,43,20.30
2017,09,04,06,44,20.30
2017,09,04,06,45,20.20
2017,09,04,06,46,20.20
2017,09,04,06,47,20.20
2017,09,04,06,48,20.20
2017,09,04,06,49,20.10
2017,09,04,06,50,20.10
2017,09,04,06,51,20.10
2017,09,04,06,52,20.10
2017,09,04,06,53,20.10
2017,09,04,06,54,20.10
2017,09,04,06,55,20.00
2017,09,04,06,56,20.00
2017,09,04,06,57,20.00
2017,09,04,06,58,20.00
2017,09,04,06,59,20.00
2017,09,04,07,00,20.00
2017,09,04,07,01,19.90
2017,09,04,07,02,19.90
2017,09,04,07,03,19.90
2017,09,04,07,04,19.90
2017,09,04,07,05,19.90
2017,09,04,07,06,19.90
2017,09,04,07,07,19.80
2017,09,04,07,08,19.80
2017,09,04,07,09,19.80
2017,09,04,07,10,19.80
2017,09,04,07,11,19.80
2017,09,04,07,12,19.80
2017,09,04,07,13,19.80
2017,09,04,07,14,19.80
2017,09,04,07,15,19.80
2017,09,04,07,16,19.80
2017,09,04,07,17,19.80
2017,09,04,07,18,19.80
2017,09,04,07,19,19.80
2017,09,04,07,20,19.70
2017,09,04,07,21,19.70
2017,09,04,07,22,19.70
2017,09,04,07,23,19.70
2017,09,04,07,24,19.70
2017,09,04,07,25,19.70
2017,09,04,07,26,19.70
2017,09,04,07,27,19.70
2017,09,04,07,28,19.70
2017,09,04,07,29,19.70
2017,09,04,07,30,19.80
2017,09,04,07,31,19.80
2017,09,04,07,32,19.80
2017,09,04,07,33,19.80
2017,09,04,07,34,19.90
2017,09,04,07,35,19.90
2017,09,04,07,36,20.00
2017,09,04,07,37,20.00
2017,09,04,07,38,20.10
2017,09,04,07,39,20.10
2017,09,04,07,40,20.20
2017,09,04,07,41,20.20
2017,09,04,07,42,20.30
2017,09,04,07,43,20.40
2017,09,04,07,44,20.40
2017,09,04,07,45,20.50
2017,09,04,07,46,20.50
2017,09,04,07,47,20.60
2017,09,04,07,48,20.60
2017,09,04,07,49,20.70
2017,09,04,07,50,20.80
2017,09,04,07,51,20.80
2017,09,04,07,52,20.90
2017,09,04,07,53,20.90
2017,09,04,07,54,21.00
2017,09,04,07,55,21.00
2017,09,04,07,56,21.10
2017,09,04,07,57,21.10
2017,09,04,07,58,21.20
2017,09,04,07,59,21.20
2017,09,04,08,00,21.30
2017,09,04,08,01,21.30
2017,09,04,08,02,21.40
2017,09,04,08,03,21.40
2017,09,04,08,04,21.50
2017,09,04,08,05,21.50
2017,09,04,08,06,21.60
2017,09,04,08,07,21.70
2017,09,04,08,08,21.80
2017,09,04,08,09,21.90
2017,09,04,08,10,21.90
2017,09,04,08,11,22.00
2017,09,04,08,12,22.10
2017,09,04,08,13,22.10
2017,09,04,08,14,22.20
2017,09,04,08,15,22.20
2017,09,04,08,16,22.30
2017,09,04,08,17,22.30
2017,09,04,08,18,22.40
2017,09,04,08,19,22.40
2017,09,04,08,20,22.50
2017,09,04,08,21,22.60
2017,09,04,08,22,22.60
2017,09,04,08,23,22.70
2017,09,04,08,24,22.80
2017,09,04,08,25,22.80
2017,09,04,08,26,22.90
2017,09,04,08,27,23.00
2017,09,04,08,28,23.10
2017,09,04,08,29,23.20
2017,09,04,08,30,23.30
2017,09,04,08,31,23.40
2017,09,04,08,32,23.50
2017,09,04,08,33,23.60
2017,09,04,08,34,23.70
2017,09,04,08,35,23.80
2017,09,04,08,36,23.80
2017,09,04,08,37,23.90
2017,09,04,08,38,24.00
2017,09,04,08,39,24.00
2017,09,04,08,40,24.10
2017,09,04,08,41,24.10
2017,09,04,08,42,24.20
2017,09,04,08,43,24.20
2017,09,04,08,44,24.20
2017,09,04,08,45,24.20
2017,09,04,08,46,24.20
2017,09,04,08,47,24.20
2017,09,04,08,48,24.20
2017,09,04,08,49,24.20
2017,09,04,08,50,24.20
2017,09,04,08,51,24.20
2017,09,04,08,52,24.30
2017,09,04,08,53,24.30
2017,09,04,08,54,24.30
2017,09,04,08,55,24.30
2017,09,04,08,56,24.30
2017,09,04,08,57,24.40
2017,09,04,08,58,24.40
2017,09,04,08,59,24.50
2017,09,04,09,00,24.50
2017,09,04,09,01,24.60
2017,09,04,09,02,24.60
2017,09,04,09,03,24.60
2017,09,04,09,04,24.70
2017,09,04,09,05,24.70
2017,09,04,09,06,24.70
2017,09,04,09,07,24.80
2017,09,04,09,08,24.80
2017,09,04,09,09,24.80
2017,09,04,09,10,24.80
2017,09,04,09,11,24.90
2017,09,04,09,12,24.90
2017,09,04,09,13,24.90
2017,09,04,09,14,25.00
2017,09,04,09,15,25.00
2017,09,04,09,16,25.10
2017,09,04,09,17,25.10
2017,09,04,09,18,25.10
2017,09,04,09,19,25.10
2017,09,04,09,20,25.20
2017,09,04,09,21,25.20
2017,09,04,09,22,25.20
2017,09,04,09,23,25.20
2017,09,04,09,24,25.30
2017,09,04,09,25,25.30
2017,09,04,09,26,25.30
2017,09,04,09,27,25.40
2017,09,04,09,28,25.40
2017,09,04,09,29,25.40
2017,09,04,09,30,25.40
2017,09,04,09,31,25.50
2017,09,04,09,32,25.50
2017,09,04,09,33,25.60
2017,09,04,09,34,25.60
2017,09,04,09,35,25.70
2017,09,04,09,36,25.70
2017,09,04,09,37,25.80
2017,09,04,09,38,25.80
2017,09,04,09,39,25.90
2017,09,04,09,40,25.90
2017,09,04,09,41,26.00
2017,09,04,09,42,26.00
2017,09,04,09,43,26.10
2017,09,04,09,44,26.10
2017,09,04,09,45,26.10
2017,09,04,09,46,26.10
2017,09,04,09,47,26.10
2017,09,04,09,48,26.10
2017,09,04,09,49,26.10
2017,09,04,09,50,26.10
2017,09,04,09,51,26.10
2017,09,04,09,52,26.10
2017,09,04,09,53,26.10
2017,09,04,09,54,26.00
2017,09,04,09,55,26.00
2017,09,04,09,56,25.90
2017,09,04,09,57,25.90
2017,09,04,09,58,25.90
2017,09,04,09,59,25.90
2017,09,04,10,00,25.90
2017,09,04,10,01,25.90
2017,09,04,10,02,25.90
2017,09,04,10,03,25.90
2017,09,04,10,04,26.00
2017,09,04,10,05,26.00
2017,09,04,10,06,26.00
2017,09,04,10,07,26.00
2017,09,04,10,08,26.10
2017,09,04,10,09,26.10
2017,09,04,10,10,26.10
2017,09,04,10,11,26.10
2017,09,04,10,12,26.20
2017,09,04,10,13,26.20
2017,09,04,10,14,26.20
2017,09,04,10,15,26.20
2017,09,04,10,16,26.20
2017,09,04,10,17,26.30
2017,09,04,10,18,26.30
2017,09,04,10,19,26.30
2017,09,04,10,20,26.30
2017,09,04,10,21,26.20
2017,09,04,10,22,26.20
2017,09,04,10,23,26.20
2017,09,04,10,24,26.20
2017,09,04,10,25,26.30
2017,09,04,10,26,26.30
2017,09,04,10,27,26.30
2017,09,04,10,28,26.40
2017,09,04,10,29,26.40
2017,09,04,10,30,26.40
2017,09,04,10,31,26.50
2017,09,04,10,32,26.50
2017,09,04,10,33,26.50
2017,09,04,10,34,26.50
2017,09,04,10,35,26.40
2017,09,04,10,36,26.40
2017,09,04,10,37,26.30
2017,09,04,10,38,26.30
2017,09,04,10,39,26.20
2017,09,04,10,40,26.20
2017,09,04,10,41,26.10
2017,09,04,10,42,26.10
2017,09,04,10,43,26.10
2017,09,04,10,44,26.20
2017,09,04,10,45,26.20
2017,09,04,10,46,26.30
2017,09,04,10,47,26.30
2017,09,04,10,48,26.30
2017,09,04,10,49,26.30
2017,09,04,10,50,26.40
2017,09,04,10,51,26.40
2017,09,04,10,52,26.40
2017,09,04,10,53,26.40
2017,09,04,10,54,26.40
2017,09,04,10,55,26.50
2017,09,04,10,56,26.50
2017,09,04,10,57,26.50
2017,09,04,10,58,26.40
2017,09,04,10,59,26.40
2017,09,04,11,00,26.40
2017,09,04,11,01,26.30
2017,09,04,11,02,26.30
2017,09,04,11,03,26.30
2017,09,04,11,04,26.30
2017,09,04,11,05,26.20
2017,09,04,11,06,26.20
2017,09,04,11,07,26.20
2017,09,04,11,08,26.10
2017,09,04,11,09,26.10
2017,09,04,11,10,26.10
2017,09,04,11,11,26.10
2017,09,04,11,12,26.20
2017,09,04,11,13,26.20
2017,09,04,11,14,26.20
2017,09,04,11,15,26.30
2017,09,04,11,16,26.30
2017,09,04,11,17,26.30
2017,09,04,11,18,26.30
2017,09,04,11,19,26.30
2017,09,04,11,20,26.30
2017,09,04,11,21,26.30
2017,09,04,11,22,26.30
2017,09,04,11,23,26.30
2017,09,04,11,24,26.40
2017,09,04,11,25,26.40
2017,09,04,11,26,26.50
2017,09,04,11,27,26.50
2017,09,04,11,28,26.60
2017,09,04,11,29,26.60
2017,09,04,11,30,26.60
2017,09,04,11,31,26.70
2017,09,04,11,32,26.80
2017,09,04,11,33,26.80
2017,09,04,11,34,26.80
2017,09,04,11,35,26.80
2017,09,04,11,36,26.90
2017,09,04,11,37,26.90
2017,09,04,11,38,26.90
2017,09,04,11,39,26.90
2017,09,04,11,40,26.90
2017,09,04,11,41,26.90
2017,09,04,11,42,26.90
2017,09,04,11,43,26.80
2017,09,04,11,44,26.70
2017,09,04,11,45,26.70
2017,09,04,11,46,26.70
2017,09,04,11,47,26.70
2017,09,04,11,48,26.70
2017,09,04,11,49,26.70
2017,09,04,11,50,26.70
2017,09,04,11,51,26.70
2017,09,04,11,52,26.70
2017,09,04,11,53,26.70
2017,09,04,11,54,26.70
2017,09,04,11,55,26.70
2017,09,04,11,56,26.70
2017,09,04,11,57,26.70
2017,09,04,11,58,26.70
2017,09,04,11,59,26.70
2017,09,04,12,00,26.70
2017,09,04,12,01,26.80
2017,09,04,12,02,26.80
2017,09,04,12,03,26.90
2017,09,04,12,04,27.00
2017,09,04,12,05,27.10
2017,09,04,12,06,27.20
2017,09,04,12,07,27.30
2017,09,04,12,08,27.40
2017,09,04,12,09,27.50
2017,09,04,12,10,27.60
2017,09,04,12,11,27.70
2017,09,04,12,12,27.70
2017,09,04,12,13,27.80
2017,09,04,12,14,27.80
2017,09,04,12,15,27.80
2017,09,04,12,16,27.70
2017,09,04,12,17,27.70
2017,09,04,12,18,27.70
2017,09,04,12,19,27.70
2017,09,04,12,20,27.70
2017,09,04,12,21,27.70
2017,09,04,12,22,27.80
2017,09,04,12,23,27.80
2017,09,04,12,24,27.80
2017,09,04,12,25,27.80
2017,09,04,12,26,27.80
2017,09,04,12,27,27.80
2017,09,04,12,28,27.80
2017,09,04,12,29,27.80
2017,09,04,12,30,27.80
2017,09,04,12,31,27.80
2017,09,04,12,32,27.80
2017,09,04,12,33,27.80
2017,09,04,12,34,27.80
2017,09,04,12,35,27.80
2017,09,04,12,36,27.80
2017,09,04,12,37,27.80
2017,09,04,12,38,27.90
2017,09,04,12,39,27.90
2017,09,04,12,40,27.90
2017,09,04,12,41,28.00
2017,09,04,12,42,28.00
2017,09,04,12,43,28.10
2017,09,04,12,44,28.10
2017,09,04,12,45,28.10
2017,09,04,12,46,28.10
2017,09,04,12,47,28.10
2017,09,04,12,48,28.20
2017,09,04,12,49,28.20
2017,09,04,12,50,28.20
2017,09,04,12,51,28.30
2017,09,04,12,52,28.30
2017,09,04,12,53,28.30
2017,09,04,12,54,28.30
2017,09,04,12,55,28.30
2017,09,04,12,56,28.30
2017,09,04,12,57,28.30
2017,09,04,12,58,28.20
2017,09,04,12,59,28.20
2017,09,04,13,00,28.20
2017,09,04,13,01,28.10
2017,09,04,13,02,28.10
2017,09,04,13,03,28.10
2017,09,04,13,04,28.10
2017,09,04,13,05,28.10
2017,09,04,13,06,28.20
2017,09,04,13,07,28.30
2017,09,04,13,08,28.40
2017,09,04,13,09,28.50
2017,09,04,13,10,28.60
2017,09,04,13,11,28.60
2017,09,04,13,12,28.70
2017,09,04,13,13,28.80
2017,09,04,13,14,28.90
2017,09,04,13,15,28.90
2017,09,04,13,16,29.00
2017,09,04,13,17,29.00
2017,09,04,13,18,29.10
2017,09,04,13,19,29.10
2017,09,04,13,20,29.10
2017,09,04,13,21,29.20
2017,09,04,13,22,29.20
2017,09,04,13,23,29.30
2017,09,04,13,24,29.30
2017,09,04,13,25,29.40
2017,09,04,13,26,29.40
2017,09,04,13,27,29.50
2017,09,04,13,28,29.50
2017,09,04,13,29,29.60
2017,09,04,13,30,29.60
2017,09,04,13,31,29.70
2017,09,04,13,32,29.70
2017,09,04,13,33,29.70
2017,09,04,13,34,29.60
2017,09,04,13,35,29.60
2017,09,04,13,36,29.50
2017,09,04,13,37,29.40
2017,09,04,13,38,29.30
2017,09,04,13,39,29.30
2017,09,04,13,40,29.30
2017,09,04,13,41,29.20
2017,09,04,13,42,29.20
2017,09,04,13,43,29.20
2017,09,04,13,44,29.20
2017,09,04,13,45,29.30
2017,09,04,13,46,29.30
2017,09,04,13,47,29.40
2017,09,04,13,48,29.40
2017,09,04,13,49,29.50
2017,09,04,13,50,29.60
2017,09,04,13,51,29.70
2017,09,04,13,52,29.80
2017,09,04,13,53,29.80
2017,09,04,13,54,29.90
2017,09,04,13,55,30.00
2017,09,04,13,56,30.00
2017,09,04,13,57,30.10
2017,09,04,13,58,30.10
2017,09,04,13,59,30.10
2017,09,04,14,00,30.10
2017,09,04,14,01,30.10
2017,09,04,14,02,30.10
2017,09,04,14,03,30.10
2017,09,04,14,04,30.10
2017,09,04,14,05,30.10
2017,09,04,14,06,30.20
2017,09,04,14,07,30.20
2017,09,04,14,08,30.20
2017,09,04,14,09,30.30
2017,09,04,14,10,30.30
2017,09,04,14,11,30.40
2017,09,04,14,12,30.40
2017,09,04,14,13,30.40
2017,09,04,14,14,30.40
2017,09,04,14,15,30.40
2017,09,04,14,16,30.40
2017,09,04,14,17,30.40
2017,09,04,14,18,30.40
2017,09,04,14,19,30.50
2017,09,04,14,20,30.50
2017,09,04,14,21,30.50
2017,09,04,14,22,30.50
2017,09,04,14,23,30.50
2017,09,04,14,24,30.50
2017,09,04,14,25,30.50
2017,09,04,14,26,30.40
2017,09,04,14,27,30.50
2017,09,04,14,28,30.50
2017,09,04,14,29,30.60
2017,09,04,14,30,30.60
2017,09,04,14,31,30.70
2017,09,04,14,32,30.60
2017,09,04,14,33,30.60
2017,09,04,14,34,30.50
2017,09,04,14,35,30.40
2017,09,04,14,36,30.30
2017,09,04,14,37,30.20
2017,09,04,14,38,30.10
2017,09,04,14,39,30.00
2017,09,04,14,40,30.00
2017,09,04,14,41,29.90
2017,09,04,14,42,29.90
2017,09,04,14,43,29.90
2017,09,04,14,44,29.80
2017,09,04,14,45,29.80
2017,09,04,14,46,29.70
2017,09,04,14,47,29.70
2017,09,04,14,48,29.60
2017,09,04,14,49,29.60
2017,09,04,14,50,29.50
2017,09,04,14,51,29.50
2017,09,04,14,52,29.40
2017,09,04,14,53,29.40
2017,09,04,14,54,29.40
2017,09,04,14,55,29.40
2017,09,04,14,56,29.40
2017,09,04,14,57,29.40
2017,09,04,14,58,29.40
2017,09,04,14,59,29.50
2017,09,04,15,00,29.50
2017,09,04,15,01,29.50
2017,09,04,15,02,29.50
2017,09,04,15,03,29.60
2017,09,04,15,04,29.60
2017,09,04,15,05,29.60
2017,09,04,15,06,29.70
2017,09,04,15,07,29.70
2017,09,04,15,08,29.70
2017,09,04,15,09,29.80
2017,09,04,15,10,29.80
2017,09,04,15,11,29.80
2017,09,04,15,12,29.90
2017,09,04,15,13,30.00
2017,09,04,15,14,30.10
2017,09,04,15,15,30.20
2017,09,04,15,16,30.30
2017,09,04,15,17,30.40
2017,09,04,15,18,30.50
2017,09,04,15,19,30.60
2017,09,04,15,20,30.60
2017,09,04,15,21,30.70
2017,09,04,15,22,30.70
2017,09,04,15,23,30.80
2017,09,04,15,24,30.80
2017,09,04,15,25,30.80
2017,09,04,15,26,30.90
2017,09,04,15,27,30.90
2017,09,04,15,28,30.90
2017,09,04,15,29,31.00
2017,09,04,15,30,31.00
2017,09,04,15,31,31.10
2017,09,04,15,32,31.20
2017,09,04,15,33,31.20
2017,09,04,15,34,31.20
2017,09,04,15,35,31.20
2017,09,04,15,36,31.20
2017,09,04,15,37,31.20
2017,09,04,15,38,31.20
2017,09,04,15,39,31.30
2017,09,04,15,40,31.30
2017,09,04,15,41,31.30
2017,09,04,15,42,31.30
2017,09,04,15,43,31.40
2017,09,04,15,44,31.40
2017,09,04,15,45,31.50
2017,09,04,15,46,31.50
2017,09,04,15,47,31.60
2017,09,04,15,48,31.60
2017,09,04,15,49,31.60
2017,09,04,15,50,31.50
2017,09,04,15,51,31.50
2017,09,04,15,52,31.40
2017,09,04,15,53,31.40
2017,09,04,15,54,31.30
2017,09,04,15,55,31.30
2017,09,04,15,56,31.20
2017,09,04,15,57,31.10
2017,09,04,15,58,31.00
2017,09,04,15,59,30.90
2017,09,04,16,00,30.90
2017,09,04,16,01,30.80
2017,09,04,16,02,30.80
2017,09,04,16,03,30.70
2017,09,04,16,04,30.70
2017,09,04,16,05,30.70
2017,09,04,16,06,30.70
2017,09,04,16,07,30.70
2017,09,04,16,08,30.70
2017,09,04,16,09,30.70
2017,09,04,16,10,30.60
2017,09,04,16,11,30.60
2017,09,04,16,12,30.60
2017,09,04,16,13,30.60
2017,09,04,16,14,30.60
2017,09,04,16,15,30.60
2017,09,04,16,16,30.60
2017,09,04,16,17,30.60
2017,09,04,16,18,30.50
2017,09,04,16,19,30.50
2017,09,04,16,20,30.50
2017,09,04,16,21,30.40
2017,09,04,16,22,30.40
2017,09,04,16,23,30.30
2017,09,04,16,24,30.30
2017,09,04,16,25,30.20
2017,09,04,16,26,30.20
2017,09,04,16,27,30.20
2017,09,04,16,28,30.20
2017,09,04,16,29,30.10
2017,09,04,16,30,30.10
2017,09,04,16,31,30.00
2017,09,04,16,32,30.00
2017,09,04,16,33,30.00
2017,09,04,16,34,29.90
2017,09,04,16,35,29.90
2017,09,04,16,36,29.90
2017,09,04,16,37,29.90
2017,09,04,16,38,29.90
2017,09,04,16,39,29.90
2017,09,04,16,40,29.90
2017,09,04,16,41,29.90
2017,09,04,16,42,29.90
2017,09,04,16,43,29.90
2017,09,04,16,44,29.90
2017,09,04,16,45,29.90
2017,09,04,16,46,29.80
2017,09,04,16,47,29.80
2017,09,04,16,48,29.70
2017,09,04,16,49,29.70
2017,09,04,16,50,29.60
2017,09,04,16,51,29.60
2017,09,04,16,52,29.60
2017,09,04,16,53,29.60
2017,09,04,16,54,29.60
2017,09,04,16,55,29.60
2017,09,04,16,56,29.60
2017,09,04,16,57,29.60
2017,09,04,16,58,29.60
2017,09,04,16,59,29.50
2017,09,04,17,00,29.50
2017,09,04,17,01,29.40
2017,09,04,17,02,29.40
2017,09,04,17,03,29.30
2017,09,04,17,04,29.30
2017,09,04,17,05,29.30
2017,09,04,17,06,29.20
2017,09,04,17,07,29.20
2017,09,04,17,08,29.20
2017,09,04,17,09,29.10
2017,09,04,17,10,29.10
2017,09,04,17,11,29.10
2017,09,04,17,12,29.10
2017,09,04,17,13,29.10
2017,09,04,17,14,29.10
2017,09,04,17,15,29.10
2017,09,04,17,16,29.10
2017,09,04,17,17,29.20
2017,09,04,17,18,29.20
2017,09,04,17,19,29.20
2017,09,04,17,20,29.20
2017,09,04,17,21,29.30
2017,09,04,17,22,29.30